Tracking 23610 objects as of 19-Sep-2021
HD Live streaming from Space Station
objects crossing your sky now

ONEWEB-0300

Track ONEWEB-0300 now!
10-day predictions
ONEWEB-0300 is classified as:


NORAD ID: 49089
Int'l Code: 2021-075Q
Perigee: 498.9 km
Apogee: 524.4 km
Inclination: 87.4 °
Period: 94.7 minutes
Semi major axis: 6882 km
RCS: Unknown
Launch date: August 21, 2021
Source: United Kingdom (UK)
Launch site: TYURATAM MISSILE AND SPACE COMPLEX (TTMTR)
aabbcc
Your satellite tracking list
Your tracking list is empty




NASA's NSSDC Master Catalog

Two Line Element Set (TLE):
1 49089U 21075Q   21261.91667824 -.00977976  00000-0 -48385-1 0  9996
2 49089  87.4499 356.5016 0018511 197.5224 302.9381 15.20437985  5583
Source of the keplerian elements: AFSPC